Regional Weather Roundup
Issued by NWS Cleveland, OH

Home | Current Version | Previous Version | Graphics & Text | Print | Product List | Glossary On
Versions: 1 2 3 4 5 6 7 8 9 10 11 12 13 14 15 16 17 18 19 20 21 22 23 24 25 26 27 28 29 30 31 32 33 34 35 36 37 38 39 40 41 42 43 44 45 46 47 48 49 50
000
ASUS41 KCLE 010100
RWRCLE
OHIO REGIONAL WEATHER ROUNDUP
NATIONAL WEATHER SERVICE WILMINGTON, OH
900 PM EDT FRI JUL 31 2015

NOTE: "FAIR" INDICATES FEW OR NO CLOUDS BELOW 12,000 FEET WITH NO
SIGNIFICANT WEATHER AND/OR OBSTRUCTIONS TO VISIBILITY.

OHZ001>008-015>018-024>027-034-035-043-044-010200-
   NORTHWEST OHIO

CITY           SKY/WX    TMP DP  RH WIND       PRES   REMARKS
DEFIANCE       FAIR      77  55  46 NW8       29.90R
FINDLAY        MOCLDY    74  65  73 W7        29.89S
TOLEDO EXPRESS FAIR      76  57  51 W7        29.88S
TOLEDO EXEC    FAIR      78  53  41 W10       29.88S
LIMA           FAIR      75  64  68 SW7       29.92S
$$

OHZ009>014-019>023-028>033-038-089-010200-
   NORTHEAST OHIO

CITY           SKY/WX    TMP DP  RH WIND       PRES   REMARKS
CLE-HOPKINS    FAIR      79  59  50 W12       29.88R
CLE-LAKEFRONT  CLOUDY    81  63  54 W15       29.83S
CUY CO. ARPT   MOCLDY    82  63  51 W14       29.86S
LORAIN-ELYRIA  FAIR      75  59  57 W6        29.87S
ASHTABULA      FAIR      75  57  53 S6        29.85S
AKRON-CANTON   LGT RAIN  78  58  49 SW12G18   29.89S
WOOSTER        NOT AVBL
MANSFIELD      FAIR      74  59  59 SW9       29.92S
YOUNGSTOWN     FAIR      75  57  53 SW8       29.87S
$$

OHZ042-051>053-060>062-070>072-077>081-010200-
  SOUTHWEST OHIO

CITY           SKY/WX    TMP DP  RH WIND       PRES   REMARKS
CINC-COVINGTON PTCLDY    78  60  53 SW6       29.97S
CINC-LUNKEN    FAIR      74  61  63 S7        29.95S
HAMILTON       FAIR      75  63  66 CALM      29.95S
DAYTON         NOT AVBL
WRIGHT-PAT AFB MOCLDY    74  65  73 S3        29.94R
DAYTON GENERAL CLOUDY    81  58  45 VRB5G20   29.94S
WILMINGTON     MOCLDY    74  62  66 SW7       29.95S
$$

OHZ036-037-039>041-045>050-054>059-063>069-073>076-082>088-010200-
  CENTRAL AND SOUTHEAST OHIO

CITY           SKY/WX    TMP DP  RH WIND       PRES   REMARKS
COLUMBUS       CLOUDY    80  58  46 NW9       29.92R
OSU AIRPORT    CLOUDY    78  60  53 W7        29.93R
BOLTON FIELD   NOT AVBL
RICKENBACK AFB NOT AVBL
NEWARK         CLOUDY    77  61  57 W3        29.92R
MARION         MOCLDY    76  60  57 W8        29.92S
LANCASTER      CLOUDY    77  62  59 SW5       29.93S
ZANESVILLE     CLOUDY    78  59  51 SW3       29.92S
NEW PHILLY     MOCLDY    74  61  63 SW3       29.90S
$$



USA.gov is the U.S. government's official web portal to all federal, state and local government web resources and services.